When you browse on this site, cookies collect data to enhance your experience and personalize the content and advertising you see.
Visit our Privacy Policy to learn more. By continuing to use the site, you agree to this use of cookies and data.
  • In Hungary
  • List of Countries
  • For 7 days
  • Water Temperature
  • Weather Map
  • News
  • Weather Widgets
  • user-avatar
    Login

    Hourly Weather Czajkow

    Today, 22 September, Sunday

    Time Temperature Precipitation Wind Pressure Humidity
    00:00 +10°C° 0 mm 2 mps 751 mmHg 91%
    01:00 +9°C° 0 mm 2 mps 751 mmHg 93%
    02:00 +9°C° 0 mm 2 mps 751 mmHg 94%
    03:00 +9°C° 0 mm 2 mps 750 mmHg 94%
    04:00 +8°C° 0 mm 2 mps 750 mmHg 95%
    05:00 +9°C° 0 mm 2 mps 750 mmHg 92%
    06:00 +10°C° 0 mm 2 mps 750 mmHg 90%
    07:00 +12°C° 0 mm 2 mps 750 mmHg 87%
    08:00 +13°C° 0 mm 2 mps 750 mmHg 79%
    09:00 +15°C° 0 mm 2 mps 750 mmHg 71%
    10:00 +17°C° 0 mm 3 mps 750 mmHg 63%
    11:00 +19°C° 0 mm 3 mps 750 mmHg 59%
    12:00 +20°C° 0 mm 3 mps 750 mmHg 54%
    13:00 +21°C° 0 mm 3 mps 749 mmHg 50%
    14:00 +21°C° 0 mm 3 mps 749 mmHg 51%
    15:00 +21°C° 0 mm 2 mps 748 mmHg 53%
    16:00 +20°C° 0 mm 2 mps 748 mmHg 55%
    17:00 +19°C° 0 mm 2 mps 748 mmHg 59%
    18:00 +18°C° 0 mm 1 mps 748 mmHg 64%
    19:00 +15°C° 0 mm 1 mps 748 mmHg 68%
    20:00 +14°C° 0 mm 1 mps 748 mmHg 70%
    21:00 +13°C° 0 mm 0 mps 748 mmHg 72%
    22:00 +12°C° 0 mm 0 mps 748 mmHg 74%
    23:00 +12°C° 0 mm 0 mps 748 mmHg 76%

    Tomorrow, 23 September, Monday

    Time Temperature Precipitation Wind Pressure Humidity
    00:00 +13°C° 0 mm 1 mps 749 mmHg 78%
    01:00 +12°C° 0 mm 1 mps 749 mmHg 80%
    02:00 +12°C° 0 mm 2 mps 749 mmHg 84%
    03:00 +10°C° 0 mm 2 mps 749 mmHg 88%
    04:00 +9°C° 0 mm 3 mps 749 mmHg 92%
    05:00 +10°C° 0 mm 3 mps 749 mmHg 91%
    06:00 +10°C° 0 mm 4 mps 749 mmHg 90%
    07:00 +10°C° 0 mm 4 mps 749 mmHg 88%
    08:00 +12°C° 0 mm 4 mps 749 mmHg 82%
    09:00 +13°C° 0 mm 5 mps 749 mmHg 76%
    10:00 +15°C° 0 mm 5 mps 749 mmHg 69%
    11:00 +15°C° 0 mm 5 mps 749 mmHg 66%
    12:00 +16°C° 0 mm 5 mps 749 mmHg 63%
    13:00 +17°C° 0 mm 5 mps 748 mmHg 60%
    14:00 +17°C° 0 mm 5 mps 748 mmHg 61%
    15:00 +16°C° 0 mm 5 mps 748 mmHg 62%
    16:00 +17°C° 0 mm 4 mps 748 mmHg 64%
    17:00 +14°C° 0 mm 4 mps 748 mmHg 68%
    18:00 +13°C° 0 mm 4 mps 748 mmHg 73%
    19:00 +11°C° 0 mm 4 mps 749 mmHg 77%
    20:00 +10°C° 0 mm 4 mps 749 mmHg 80%
    21:00 +10°C° 0 mm 4 mps 749 mmHg 82%
    22:00 +8°C° 0 mm 4 mps 749 mmHg 84%
    23:00 +9°C° 0 mm 3 mps 749 mmHg 86%

    Day after tomorrow, 24 September, Tuesday

    Time Temperature Precipitation Wind Pressure Humidity
    00:00 +8°C° 0 mm 3 mps 749 mmHg 89%
    01:00 +8°C° 0 mm 3 mps 749 mmHg 91%
    02:00 +8°C° 0 mm 3 mps 748 mmHg 92%
    03:00 +7°C° 0 mm 3 mps 748 mmHg 94%
    04:00 +7°C° 0 mm 3 mps 748 mmHg 95%
    05:00 +8°C° 0 mm 3 mps 748 mmHg 93%
    06:00 +9°C° 0 mm 3 mps 748 mmHg 91%
    07:00 +9°C° 0 mm 3 mps 747 mmHg 88%
    08:00 +12°C° 0 mm 3 mps 747 mmHg 80%
    09:00 +14°C° 0 mm 3 mps 747 mmHg 72%
    10:00 +17°C° 0 mm 3 mps 747 mmHg 64%
    11:00 +18°C° 0 mm 4 mps 747 mmHg 60%
    12:00 +19°C° 0 mm 4 mps 747 mmHg 55%
    13:00 +21°C° 0 mm 4 mps 746 mmHg 51%
    14:00 +20°C° 0 mm 3 mps 746 mmHg 52%
    15:00 +20°C° 0 mm 3 mps 745 mmHg 54%
    16:00 +20°C° 0 mm 3 mps 745 mmHg 55%
    17:00 +18°C° 0 mm 3 mps 745 mmHg 60%
    18:00 +15°C° 0 mm 4 mps 745 mmHg 65%
    19:00 +13°C° 0 mm 4 mps 745 mmHg 70%
    20:00 +13°C° 0 mm 4 mps 745 mmHg 70%
    21:00 +13°C° 0 mm 4 mps 745 mmHg 71%
    22:00 +12°C° 0 mm 4 mps 744 mmHg 72%
    23:00 +12°C° 0 mm 4 mps 744 mmHg 73%

    25 September, Wednesday

    Time Temperature Precipitation Wind Pressure Humidity
    00:00 +12°C° 0 mm 4 mps 744 mmHg 75%
    01:00 +12°C° 0 mm 4 mps 743 mmHg 77%
    02:00 +12°C° 0 mm 3 mps 743 mmHg 77%
    03:00 +12°C° 0 mm 3 mps 743 mmHg 77%
    04:00 +12°C° 0 mm 3 mps 742 mmHg 77%
    05:00 +12°C° 0 mm 3 mps 742 mmHg 77%
    06:00 +13°C° 0 mm 2 mps 742 mmHg 76%
    07:00 +14°C° 0 mm 2 mps 742 mmHg 76%
    08:00 +14°C° 0.1 mm 2 mps 742 mmHg 77%
    09:00 +14°C° 0.1 mm 2 mps 742 mmHg 77%
    10:00 +14°C° 0.1 mm 2 mps 742 mmHg 78%
    11:00 +16°C° 0.1 mm 2 mps 742 mmHg 75%
    12:00 +17°C° 0.1 mm 2 mps 741 mmHg 72%
    13:00 +18°C° 0.1 mm 3 mps 741 mmHg 69%
    14:00 +18°C° 0.4 mm 3 mps 741 mmHg 71%
    15:00 +18°C° 0.4 mm 3 mps 741 mmHg 73%
    16:00 +17°C° 0.4 mm 3 mps 741 mmHg 74%
    17:00 +17°C° 0.1 mm 3 mps 741 mmHg 76%
    18:00 +16°C° 0.1 mm 2 mps 741 mmHg 78%
    19:00 +16°C° 0.1 mm 2 mps 741 mmHg 81%
    20:00 +16°C° 0.1 mm 2 mps 741 mmHg 82%
    21:00 +15°C° 0.1 mm 2 mps 741 mmHg 84%
    22:00 +14°C° 0.1 mm 3 mps 741 mmHg 86%
    23:00 +14°C° 0.1 mm 3 mps 741 mmHg 88%

    26 September, Thursday

    Time Temperature Precipitation Wind Pressure Humidity
    00:00 +13°C° 0.1 mm 3 mps 741 mmHg 89%
    01:00 +13°C° 0.1 mm 3 mps 741 mmHg 90%
    02:00 +13°C° 0 mm 4 mps 741 mmHg 90%
    03:00 +13°C° 0 mm 4 mps 741 mmHg 90%
    04:00 +13°C° 0 mm 5 mps 742 mmHg 91%
    05:00 +13°C° 0.1 mm 5 mps 742 mmHg 90%
    06:00 +13°C° 0.1 mm 5 mps 742 mmHg 89%
    07:00 +12°C° 0.1 mm 5 mps 742 mmHg 88%
    08:00 +13°C° 0.4 mm 5 mps 742 mmHg 88%
    09:00 +13°C° 0.4 mm 5 mps 743 mmHg 87%
    10:00 +13°C° 0.4 mm 5 mps 743 mmHg 86%
    11:00 +13°C° 0.4 mm 5 mps 743 mmHg 86%
    12:00 +13°C° 0.4 mm 5 mps 743 mmHg 86%
    13:00 +13°C° 0.4 mm 5 mps 743 mmHg 86%
    14:00 +14°C° 0 mm 5 mps 743 mmHg 82%
    15:00 +14°C° 0 mm 4 mps 743 mmHg 79%
    16:00 +16°C° 0 mm 3 mps 744 mmHg 76%
    17:00 +14°C° 0 mm 3 mps 744 mmHg 79%
    18:00 +13°C° 0 mm 3 mps 744 mmHg 83%
    19:00 +12°C° 0 mm 3 mps 744 mmHg 86%
    20:00 +12°C° 0 mm 3 mps 745 mmHg 88%
    21:00 +12°C° 0 mm 4 mps 745 mmHg 91%
    22:00 +12°C° 0 mm 4 mps 745 mmHg 93%
    23:00 +11°C° 0 mm 4 mps 745 mmHg 94%

    27 September, Friday

    Time Temperature Precipitation Wind Pressure Humidity
    00:00 +11°C° 0 mm 3 mps 745 mmHg 95%
    01:00 +11°C° 0 mm 3 mps 745 mmHg 96%
    02:00 +11°C° 0 mm 3 mps 746 mmHg 96%
    03:00 +12°C° 0 mm 2 mps 746 mmHg 95%
    04:00 +12°C° 0 mm 2 mps 746 mmHg 94%
    05:00 +12°C° 0.1 mm 1 mps 746 mmHg 94%
    06:00 +12°C° 0.1 mm 1 mps 746 mmHg 93%
    07:00 +12°C° 0.1 mm 1 mps 746 mmHg 92%
    08:00 +12°C° 0.2 mm 1 mps 746 mmHg 91%
    09:00 +12°C° 0.2 mm 1 mps 747 mmHg 90%
    10:00 +12°C° 0.2 mm 1 mps 747 mmHg 88%
    11:00 +12°C° 0.1 mm 1 mps 747 mmHg 88%
    12:00 +13°C° 0.1 mm 1 mps 747 mmHg 88%
    13:00 +13°C° 0.1 mm 1 mps 747 mmHg 88%
    14:00 +13°C° 0 mm 1 mps 747 mmHg 88%
    15:00 +13°C° 0 mm 1 mps 747 mmHg 88%
    16:00 +13°C° 0 mm 1 mps 747 mmHg 88%
    17:00 +13°C° 0 mm 2 mps 747 mmHg 89%
    18:00 +13°C° 0 mm 2 mps 747 mmHg 89%
    19:00 +12°C° 0 mm 2 mps 748 mmHg 90%
    20:00 +12°C° 0 mm 2 mps 748 mmHg 91%
    21:00 +11°C° 0 mm 3 mps 748 mmHg 93%
    22:00 +10°C° 0 mm 3 mps 748 mmHg 95%
    23:00 +10°C° 0 mm 3 mps 747 mmHg 95%
    Show more